Date,TemperatureHighF,TemperatureAvgF,TemperatureLowF,DewpointHighF,DewpointAvgF,DewpointLowF,HumidityHigh,HumidityAvg,HumidityLow,PressureMaxIn,PressureMinIn,WindSpeedMaxMPH,WindSpeedAvgMPH,GustSpeedMaxMPH,PrecipitationSumIn
2013-1-1,43.2,37.0,32.4,31.3,27.0,21.1,76,67,57,29.97,29.86,10,1,10,0.00
2013-1-2,39.1,32.4,26.1,27.9,20.0,13.5,76,61,42,30.17,29.95,9,3,11,0.00
2013-1-3,48.8,28.7,18.5,26.6,17.1,12.2,78,63,40,30.18,30.07,9,1,9,0.00
2013-1-4,42.7,34.6,30.8,23.0,20.1,18.1,63,55,43,30.16,30.07,10,4,14,0.00
2013-1-5,38.5,33.1,30.6,21.5,19.3,18.1,61,56,50,30.32,30.10,10,3,11,0.00
2013-1-6,46.4,38.3,29.9,31.3,26.8,22.2,78,64,53,30.12,29.98,8,1,8,0.00
2013-1-7,49.3,36.8,25.2,30.3,24.8,18.4,77,62,42,30.40,30.10,9,2,9,0.00
2013-1-8,58.9,36.3,23.2,36.2,25.8,18.0,85,67,39,30.34,30.27,11,2,11,0.00
2013-1-9,56.5,41.2,26.8,45.3,31.4,20.9,82,69,42,30.37,30.18,11,2,11,0.00
2013-1-10,63.2,46.9,38.5,36.3,29.2,25.4,62,51,36,30.54,30.36,7,2,9,0.00
2013-1-11,49.9,42.6,37.8,39.6,33.0,26.3,87,69,55,30.40,30.03,8,2,8,0.09
2013-1-12,61.0,46.3,40.3,52.2,41.8,36.7,90,85,70,30.12,30.04,4,1,4,0.00
2013-1-13,65.0,50.8,39.2,57.2,46.0,36.3,92,84,72,30.05,29.93,4,1,4,0.00
2013-1-20,54.7,41.4,29.7,25.7,11.8,7.2,40,30,23,30.03,29.83,10,3,10,0.00
2013-1-21,46.8,31.6,24.1,23.0,14.7,7.8,65,50,29,30.04,29.75,10,2,10,0.00
2013-1-22,25.6,17.8,13.3,10.2,-2.1,-5.5,52,41,32,30.21,29.92,11,3,11,0.00
2013-1-23,25.0,18.8,11.9,8.8,0.3,-2.5,62,45,32,30.26,30.05,8,2,8,0.00
2013-1-24,19.6,17.5,15.8,11.6,9.9,8.1,80,72,61,30.25,30.01,6,1,6,0.00
2013-1-25,23.0,17.2,10.1,15.4,7.0,-0.6,78,64,51,30.45,29.99,8,1,8,0.00
2013-1-26,33.8,26.1,18.9,25.4,18.7,11.9,81,73,61,30.38,30.00,8,1,8,0.01
2013-1-27,44.1,30.1,21.6,25.1,17.0,12.0,69,58,42,30.52,30.37,7,1,7,0.03
2013-1-28,50.2,39.1,28.8,42.8,33.1,19.3,88,79,67,30.38,30.00,10,3,10,0.03
2013-1-29,74.5,58.5,48.6,56.5,49.2,42.4,86,72,53,30.07,29.90,10,2,10,0.00
2013-1-30,71.6,56.7,48.4,59.7,51.5,43.3,91,83,65,29.90,29.22,23,3,23,1.39
2013-1-31,55.1,37.9,28.8,52.7,24.4,11.2,92,59,43,29.85,29.15,14,4,14,0.86
2013-2-1,29.2,22.7,15.1,23.1,7.8,1.1,84,53,37,30.31,29.75,14,4,14,0.00
2013-2-2,29.2,20.7,11.5,21.7,10.4,1.8,79,65,49,30.31,29.94,6,1,6,0.00
2013-2-3,35.8,29.3,24.5,29.6,21.7,11.3,84,74,49,29.94,29.75,11,1,11,0.01
2013-2-4,41.2,30.7,22.1,21.4,15.4,10.4,64,53,39,30.02,29.82,10,2,10,0.00
2013-2-5,39.2,34.3,31.3,31.6,27.0,20.9,84,74,63,29.89,29.78,5,1,5,0.00
2013-2-6,45.2,36.2,26.6,31.9,26.8,19.5,89,70,50,30.28,29.88,9,2,9,0.01
2013-2-7,39.2,32.5,23.6,26.7,23.0,17.5,80,69,56,30.35,30.13,9,2,9,0.00
2013-2-8,40.9,35.1,31.3,34.4,28.0,20.5,87,75,60,30.13,29.75,15,3,15,0.07
2013-2-9,42.7,32.4,22.1,21.1,17.0,12.1,72,54,31,30.34,29.95,16,5,16,0.00
2013-2-10,48.2,32.3,16.2,24.8,17.3,9.8,81,56,35,30.39,30.13,10,2,10,0.00
2013-2-11,67.3,49.9,35.5,51.8,35.2,22.1,88,61,23,30.13,29.66,19,4,19,0.11
2013-2-12,61.2,48.5,36.4,30.7,25.2,20.6,59,41,27,29.94,29.80,14,3,14,0.00
2013-2-13,45.4,35.9,29.9,31.3,26.0,19.4,88,68,53,29.89,29.62,6,1,6,0.05
2013-2-14,52.7,38.8,30.1,32.6,27.4,22.7,88,65,43,29.95,29.74,10,2,10,0.13
2013-2-15,56.0,40.2,31.5,37.5,30.1,23.5,84,68,42,29.99,29.88,10,2,10,0.11
2013-2-16,37.4,33.2,27.0,30.3,22.5,12.0,89,66,50,29.95,29.82,11,3,11,0.09
2013-2-17,27.7,24.4,21.4,13.9,9.0,4.4,65,52,41,30.17,29.82,13,4,13,0.00
2013-2-18,47.2,31.4,18.4,18.7,11.5,4.7,59,45,29,30.31,30.04,11,2,11,0.00
2013-2-19,55.3,40.1,31.5,40.0,27.8,16.7,79,62,48,30.04,29.63,19,4,19,0.06
2013-2-20,36.7,30.4,22.9,20.3,13.8,8.8,56,50,41,30.12,29.82,14,4,14,0.00
2013-2-21,39.1,28.2,22.0,18.3,13.1,8.2,61,53,41,30.27,30.08,12,3,12,0.00
2013-2-22,32.2,29.7,25.7,26.3,21.0,14.2,79,70,60,30.31,30.10,8,2,8,0.00
2013-2-23,54.2,39.9,32.0,41.1,32.0,26.0,81,74,60,30.11,29.79,5,1,5,0.01
2013-2-24,51.1,40.7,30.2,29.0,23.4,16.7,62,51,38,30.09,29.84,15,5,15,0.00
2013-2-25,49.5,39.1,26.5,26.0,20.9,16.2,72,49,37,30.17,30.08,7,1,7,0.00
2013-2-26,39.2,32.9,24.8,36.6,27.0,15.8,91,79,63,30.15,29.60,8,2,8,0.37
2013-2-27,54.0,43.6,36.4,41.8,34.0,31.1,91,71,46,29.66,29.53,13,2,13,0.28
2013-2-28,42.8,40.1,36.2,31.6,27.0,23.9,69,60,49,29.71,29.60,8,2,8,0.00
2013-3-1,39.8,36.9,32.6,27.7,25.0,21.7,69,62,54,29.87,29.71,9,3,9,0.00
2013-3-2,35.1,31.4,29.0,21.8,20.0,17.6,67,62,54,29.86,29.78,10,3,10,0.00
2013-3-3,39.4,31.7,28.1,20.1,17.8,13.5,67,57,42,29.90,29.79,13,4,13,0.00
2013-3-4,43.2,32.6,25.2,18.2,14.8,12.0,59,49,32,30.00,29.85,9,3,9,0.00
2013-3-5,54.4,41.2,31.3,27.2,21.1,16.1,75,46,31,30.01,29.75,7,2,7,0.00
2013-3-6,39.1,35.5,32.2,32.6,29.8,27.4,90,80,63,29.99,29.63,21,5,21,0.37
2013-3-7,43.7,39.9,36.4,28.2,27.0,25.9,70,60,50,30.14,29.99,10,4,10,0.02
2013-3-8,44.3,38.0,34.2,28.7,26.4,23.9,72,63,53,30.27,30.13,11,5,11,0.01
2013-3-9,62.3,46.1,25.4,33.7,25.6,19.4,81,47,24,30.33,30.21,5,1,5,0.00
2013-3-10,67.3,47.8,29.0,35.7,27.4,21.2,77,48,28,30.25,30.12,13,3,13,0.00
2013-3-11,59.8,50.9,42.5,47.4,35.6,23.5,76,57,37,30.13,29.81,14,4,14,0.00
2013-3-12,56.7,50.1,39.6,50.1,40.5,28.0,88,70,51,29.94,29.71,15,4,15,0.73
2013-3-13,39.6,33.1,30.6,27.2,23.4,21.2,74,67,57,29.94,29.88,2,0,2,0.00
2013-3-14,43.6,37.1,29.2,19.0,16.6,13.0,55,44,36,30.10,30.01,15,6,15,0.00
2013-3-15,61.2,45.9,30.4,35.3,24.5,15.9,57,44,33,30.06,29.74,15,4,15,0.00
2013-3-16,59.9,43.8,37.1,43.7,35.8,31.3,80,74,55,29.87,29.59,11,3,11,0.02
2013-3-17,39.2,37.1,35.6,32.0,28.2,24.6,81,70,59,30.20,29.87,9,2,9,0.00
2013-3-18,35.6,32.6,30.8,29.7,28.0,26.3,88,83,70,30.23,29.83,5,1,5,0.26
2013-3-19,58.9,42.7,32.4,37.4,24.4,8.7,91,57,21,29.89,29.68,15,3,15,0.24
2013-3-20,53.1,41.4,31.5,28.8,15.8,10.4,73,37,23,29.94,29.71,15,4,15,0.00
2013-3-21,35.3,30.4,26.3,26.7,13.7,7.7,72,50,36,29.86,29.74,12,4,12,0.00
2013-3-22,48.6,37.2,25.6,21.5,16.3,9.8,59,43,32,29.96,29.84,13,3,13,0.00
2013-3-23,57.6,40.1,22.7,25.9,19.4,14.0,75,46,25,29.99,29.87,10,2,10,0.00
2013-3-24,43.0,34.8,27.9,27.2,23.4,17.5,80,64,48,29.95,29.58,6,1,6,0.00
2013-3-25,44.8,35.7,31.7,34.5,30.1,26.6,89,80,65,29.66,29.49,7,0,7,0.01
2013-3-26,47.9,39.3,32.4,31.1,28.1,25.6,88,66,47,29.98,29.66,12,3,12,0.02
2013-3-27,47.2,39.8,34.9,33.8,26.9,23.4,73,60,43,30.09,29.97,10,4,13,0.00
2013-3-28,48.1,41.0,36.0,29.9,27.3,24.2,64,58,48,30.20,30.05,11,3,11,0.00
2013-3-29,55.3,43.7,37.1,32.8,27.8,23.0,72,55,32,30.21,30.10,8,1,8,0.00
2013-3-30,63.9,48.0,33.1,33.8,26.5,22.6,70,46,25,30.19,30.05,8,1,8,0.00
2013-3-31,50.4,44.7,38.7,44.7,35.6,23.1,85,71,52,30.05,29.71,4,1,4,0.15
2013-4-1,58.9,46.9,38.5,44.5,33.4,17.8,87,61,42,29.95,29.72,14,4,14,0.02
2013-4-2,47.7,39.7,30.8,19.7,15.1,11.3,51,37,24,30.13,29.95,13,3,13,0.00
2013-4-3,50.8,38.8,26.6,19.4,15.3,12.2,62,40,22,30.33,30.13,13,4,13,0.00
2013-4-4,43.0,28.3,21.6,27.9,14.1,10.1,67,56,35,30.34,30.03,8,1,8,0.00
2013-4-5,66.1,50.0,34.2,37.5,29.9,22.9,87,52,25,30.01,29.80,16,4,16,0.01
2013-4-6,62.1,53.5,37.6,27.1,23.1,16.9,54,32,22,30.27,30.03,9,3,9,0.00
2013-4-7,72.7,58.9,40.3,44.4,38.2,26.4,65,47,35,30.13,29.92,17,4,17,0.00
2013-4-8,82.6,68.3,54.0,48.9,45.3,41.6,67,46,29,30.04,29.89,16,4,16,0.00
2013-4-9,88.4,73.5,59.9,57.7,51.5,45.7,65,48,32,30.06,29.90,16,3,16,0.00
2013-4-10,93.8,77.6,61.7,60.4,53.9,48.2,64,45,30,29.96,29.76,14,3,14,0.00
2013-4-11,91.4,74.3,56.2,62.7,54.8,47.3,76,52,35,29.87,29.69,16,3,16,0.00
2013-4-12,79.6,63.9,53.3,64.0,54.4,37.8,88,72,44,29.76,29.53,14,3,14,0.28
2013-4-13,70.4,58.4,48.8,40.0,34.3,26.9,63,42,23,29.93,29.76,11,3,11,0.00
2013-4-14,71.1,56.2,39.6,43.2,36.1,27.6,70,48,33,30.10,29.93,8,2,8,0.00
2013-4-15,65.7,58.9,54.2,50.5,45.5,37.3,78,61,50,30.22,30.06,10,3,10,0.00
2013-4-16,79.0,65.3,54.4,60.5,54.5,47.6,84,69,52,30.22,30.06,15,4,15,0.00
2013-4-17,79.0,66.2,56.3,64.7,57.9,51.5,88,75,60,30.18,30.09,9,2,9,0.19
2013-4-18,77.0,67.5,60.3,63.6,57.4,54.3,85,71,57,30.18,29.91,13,4,13,0.02
2013-4-19,75.1,66.0,52.9,63.9,56.4,37.4,88,71,55,29.91,29.56,18,4,18,0.49
2013-4-20,58.9,50.9,42.7,39.2,28.7,23.6,62,43,29,30.31,29.77,11,3,11,0.00
2013-4-21,58.3,45.5,33.3,33.0,26.7,22.6,69,49,32,30.53,30.31,9,2,9,0.00
2013-4-22,61.9,47.3,33.1,39.6,32.0,25.4,77,57,38,30.50,30.32,8,1,8,0.00
2013-4-23,62.6,49.1,37.4,45.7,37.7,29.9,78,65,51,30.34,30.05,6,1,6,0.00
2013-4-24,79.4,59.8,40.0,58.7,47.0,34.9,88,66,41,30.05,29.73,21,3,21,0.02
2013-4-25,66.2,53.4,42.8,40.3,32.8,27.9,67,47,28,30.28,30.02,10,2,10,0.01
2013-4-26,68.0,54.2,40.0,41.9,35.8,30.0,72,52,32,30.43,30.26,8,2,8,0.00
2013-4-27,75.6,58.6,40.1,48.3,39.9,32.1,74,52,33,30.36,30.21,8,1,8,0.00
2013-4-28,58.0,53.7,49.3,48.1,43.4,37.5,82,69,51,30.22,30.07,8,2,8,0.11
2013-4-29,63.2,55.6,52.2,56.2,50.2,45.4,87,82,72,30.08,30.00,8,2,8,0.06
2013-4-30,64.4,57.4,53.6,57.8,52.5,49.7,88,84,76,30.26,30.05,8,1,8,0.01
2013-5-1,74.5,61.4,50.6,50.4,44.6,38.1,85,58,30,30.37,30.25,7,1,7,0.00
2013-5-2,72.5,57.7,41.0,51.4,42.9,35.1,83,60,34,30.37,30.27,8,1,8,0.00
2013-5-3,70.6,55.9,42.3,51.3,42.8,35.7,86,63,41,30.33,30.22,7,1,7,0.00
2013-5-4,70.9,55.6,40.7,50.8,41.9,33.8,83,62,40,30.28,30.12,8,1,8,0.00
2013-5-5,66.8,54.0,40.5,45.7,40.1,33.9,85,61,42,30.19,30.08,6,1,7,0.00
2013-5-6,57.4,52.5,45.5,54.4,47.1,38.6,90,82,70,30.13,30.00,5,1,5,0.07
2013-5-7,61.7,58.6,55.1,59.0,55.8,51.8,92,90,87,30.00,29.88,8,2,8,0.99
2013-5-8,70.6,58.0,51.1,59.2,52.6,47.8,92,83,57,29.97,29.89,7,1,7,0.56
2013-5-9,73.8,61.0,48.6,60.6,53.0,45.2,92,77,54,30.00,29.88,8,1,8,0.00
2013-5-10,85.5,67.3,52.9,63.5,56.6,48.3,87,71,41,29.99,29.82,10,2,10,0.62
2013-5-11,76.9,66.6,60.7,65.4,58.4,51.3,90,76,55,29.86,29.71,14,2,14,0.35
2013-5-12,63.2,56.7,44.3,51.8,37.2,27.2,72,50,30,30.00,29.75,12,2,12,0.00
2013-5-13,58.5,49.4,40.9,34.7,30.1,23.7,70,49,28,30.14,29.99,10,1,10,0.00
2013-5-14,67.9,51.6,34.2,42.4,35.8,28.0,81,57,35,30.17,29.97,9,1,9,0.00
2013-5-15,90.4,76.8,50.8,65.9,55.3,41.4,77,50,29,29.97,29.66,12,3,12,0.00
2013-5-16,78.1,73.0,66.2,63.0,56.5,51.6,76,57,44,29.94,29.75,9,1,9,0.02
2013-5-17,85.3,71.3,55.4,64.5,56.5,49.9,84,61,42,30.09,29.92,7,1,7,0.00
2013-5-18,70.7,64.7,60.8,60.6,56.6,52.8,85,75,67,30.18,30.07,6,1,6,0.00
2013-5-19,72.2,64.5,59.0,63.9,59.1,55.2,88,83,72,30.16,30.05,7,1,7,0.00
2013-5-20,84.2,72.4,62.3,72.2,64.7,59.0,91,78,60,30.07,29.95,8,1,8,0.09
2013-5-21,91.1,76.2,63.7,72.8,66.1,58.8,88,72,50,29.97,29.84,8,2,8,0.00
2013-5-22,92.5,75.7,65.9,71.3,65.6,61.6,87,73,41,29.91,29.79,9,2,9,0.26
2013-5-23,80.3,68.0,62.3,69.2,62.7,58.6,90,84,66,29.88,29.72,15,2,15,1.09
2013-5-24,62.3,54.7,45.7,59.4,44.2,31.1,90,68,50,30.17,29.74,16,4,16,0.10
2013-5-25,54.0,44.6,41.8,38.0,32.5,29.8,68,63,52,30.19,30.15,9,2,9,0.00
2013-5-26,71.6,55.5,46.3,44.0,36.7,33.5,69,51,28,30.20,30.11,9,2,9,0.00
2013-5-27,67.1,57.0,43.2,51.1,44.8,35.8,79,64,50,30.25,30.15,7,1,7,0.00
2013-5-28,82.8,67.3,53.6,68.7,58.0,47.6,83,73,57,30.16,30.02,7,1,7,0.02
2013-5-29,87.3,75.6,64.1,69.1,64.0,58.8,86,69,45,30.11,30.04,11,2,11,0.00
2013-5-30,94.0,78.9,65.9,71.6,64.8,59.4,82,64,41,30.18,30.07,8,2,8,0.00
2013-5-31,92.0,78.6,65.9,68.9,63.2,59.2,80,61,40,30.13,29.99,9,2,9,0.00
2013-6-1,93.6,79.8,68.4,72.5,65.5,60.6,79,63,46,30.02,29.89,10,3,10,0.00
2013-6-2,83.5,73.9,69.1,71.2,65.0,59.3,88,74,61,29.89,29.82,14,2,14,0.85
2013-6-3,79.7,70.8,64.1,68.9,62.7,53.6,90,76,62,29.97,29.84,9,1,9,0.53
2013-6-4,76.7,65.5,54.2,54.2,50.0,42.8,78,59,38,30.11,29.97,6,1,6,0.00
2013-6-5,78.7,66.3,53.8,60.8,54.8,48.1,82,68,44,30.14,30.00,8,1,8,0.00
2013-6-6,67.5,64.3,61.2,62.0,57.2,51.0,89,78,65,30.02,29.82,6,1,6,0.54
2013-6-7,67.7,65.5,63.5,64.3,62.4,60.1,91,90,88,29.83,29.63,8,1,8,0.43
2013-6-8,78.5,69.3,60.3,65.2,61.2,56.4,88,76,59,30.08,29.74,6,1,6,0.02
2013-6-9,76.3,70.8,61.2,69.6,64.0,56.1,87,79,67,30.17,30.05,5,1,5,0.05
2013-6-10,80.6,70.5,67.1,72.5,66.7,64.1,91,88,75,30.07,29.78,10,1,10,0.70
2013-6-11,81.7,72.1,63.5,68.1,63.7,60.7,92,76,56,29.86,29.78,7,2,7,0.01
2013-6-12,86.9,77.5,67.3,69.7,65.3,60.3,80,67,51,29.87,29.77,9,2,9,0.00
2013-6-13,81.5,70.8,65.3,70.8,64.5,55.5,89,81,67,29.79,29.48,14,2,14,1.01
2013-6-14,77.4,68.4,60.8,59.4,54.3,51.4,73,61,43,29.99,29.65,10,3,10,0.00
2013-6-15,81.7,70.4,59.0,62.2,55.4,51.8,79,61,40,30.07,29.98,7,1,7,0.00
2013-6-16,82.4,71.4,61.6,67.5,60.8,53.2,80,70,59,30.01,29.88,11,2,11,0.00
2013-6-17,86.9,76.1,67.3,70.6,65.8,59.6,84,71,56,29.96,29.87,8,2,8,0.19
2013-6-18,71.1,68.7,65.9,67.1,64.6,61.8,90,87,80,29.90,29.79,4,1,4,1.14
2013-6-19,76.0,68.6,63.5,65.5,61.5,58.2,89,79,63,30.12,29.87,5,1,5,0.00
2013-6-20,80.3,70.2,61.2,68.5,61.9,57.3,89,76,57,30.22,30.12,9,1,9,0.00
2013-6-21,84.2,72.4,59.2,65.8,59.8,52.9,82,66,47,30.26,30.18,7,1,7,0.00
2013-6-22,88.4,74.8,60.7,70.2,63.3,55.5,84,69,52,30.23,30.10,8,2,8,0.00
2013-6-23,86.4,76.1,65.0,73.0,66.3,60.4,88,73,53,30.16,30.05,8,1,8,0.00
2013-6-24,91.8,76.5,67.3,75.0,67.0,61.7,84,73,52,30.13,30.02,9,2,9,0.10
2013-6-25,92.0,79.5,67.5,75.0,68.2,60.6,85,69,53,30.04,29.89,13,2,13,0.00
2013-6-26,90.2,76.8,66.6,74.8,66.8,59.9,83,72,52,29.92,29.82,10,1,10,0.02
2013-6-27,87.1,75.0,68.4,73.5,67.9,64.4,88,79,63,29.83,29.62,10,1,10,0.52
2013-6-28,90.2,75.6,69.1,73.4,66.0,60.8,84,73,52,29.63,29.49,10,2,10,0.12
2013-6-29,87.7,74.0,65.2,67.7,62.9,58.7,87,69,47,29.69,29.52,10,2,10,0.12
2013-6-30,86.2,78.3,67.3,74.3,68.4,59.3,88,73,47,29.82,29.59,7,1,7,0.00
2013-7-1,82.3,76.0,70.9,71.9,68.5,65.4,84,78,67,29.94,29.82,8,1,8,0.04
2013-7-2,85.9,76.3,71.6,73.6,69.3,66.4,89,79,64,30.12,29.94,8,2,8,0.06
2013-7-3,82.8,75.7,71.3,74.0,69.6,55.0,89,82,47,30.20,29.59,10,2,10,0.07
2013-7-4,88.6,76.8,69.8,75.2,68.8,55.2,89,77,47,30.21,29.59,12,2,12,0.00
2013-7-5,79.6,77.5,76.0,68.8,60.4,55.0,78,57,47,30.16,29.59,5,2,5,0.00
2013-7-6,94.5,80.7,72.0,74.7,69.8,66.2,85,71,49,30.18,29.59,10,2,10,0.00
2013-7-7,92.2,77.5,70.0,75.7,68.5,65.5,88,75,54,30.09,29.99,10,1,10,0.23
2013-7-8,85.1,75.8,67.7,71.7,67.0,64.2,90,75,56,30.11,30.03,7,2,10,0.00
2013-7-9,83.9,76.2,70.9,73.3,68.6,65.2,83,77,64,30.10,29.99,12,2,12,0.00
2013-7-10,84.8,77.4,73.6,75.9,70.3,67.2,86,79,66,30.00,29.85,12,2,12,0.02
2013-7-11,86.0,75.9,71.6,70.2,66.7,55.1,87,74,47,29.94,29.59,8,1,8,0.01
2013-7-12,86.0,68.6,65.2,79.2,63.9,53.0,90,85,50,30.06,29.92,7,1,7,0.65
2013-7-13,85.2,74.1,66.2,79.0,67.7,58.6,91,81,51,30.24,30.05,5,1,5,0.00
2013-7-14,90.2,77.7,69.8,75.2,69.9,65.9,90,78,55,30.32,29.59,9,1,9,0.00
2013-7-15,94.0,80.9,68.8,75.4,69.9,58.2,88,71,47,30.31,30.14,7,1,7,0.00
2013-7-16,93.6,82.6,73.1,77.4,70.9,55.0,84,69,49,30.26,30.17,7,1,7,0.00
2013-7-17,95.4,83.8,74.5,77.3,71.3,56.2,84,68,47,30.23,29.59,8,1,8,0.00
2013-7-18,95.8,80.7,74.9,75.9,71.8,55.4,84,75,47,30.13,29.66,6,1,6,0.00
2013-7-19,98.5,83.5,74.3,78.4,71.9,57.1,83,69,47,30.02,29.88,10,2,15,0.00
2013-7-20,95.8,82.5,72.9,75.8,70.1,61.4,83,68,49,29.90,29.79,12,2,12,0.00
2013-7-21,92.9,77.5,70.9,77.7,68.0,54.5,84,73,49,29.95,29.88,6,1,6,0.04
2013-7-22,88.2,75.5,69.5,74.2,69.2,65.7,89,81,60,29.93,29.74,9,1,9,1.13
2013-7-23,84.1,76.9,70.6,72.4,68.0,65.3,91,75,57,29.76,29.66,10,1,10,1.58
2013-7-24,82.6,74.0,67.3,67.6,62.5,56.4,84,68,54,29.92,29.69,8,2,8,0.01
2013-7-25,79.6,68.9,59.6,60.2,55.5,50.8,74,63,45,30.04,29.92,8,2,8,0.00
2013-7-26,85.0,68.8,56.5,63.8,57.5,51.4,85,69,44,30.09,30.00,7,1,7,0.00
2013-7-27,80.6,71.5,63.0,69.9,64.5,57.6,86,79,64,30.02,29.89,12,2,12,0.00
2013-7-28,83.9,74.1,67.3,70.6,65.6,57.5,88,76,55,29.99,29.85,7,1,7,0.00
2013-7-29,82.4,70.3,56.9,59.7,56.0,51.9,84,62,44,30.15,29.98,9,1,9,0.00
2013-7-30,82.8,70.8,58.7,63.6,58.5,52.1,82,66,50,30.21,30.12,7,1,7,0.00
2013-7-31,78.8,69.4,62.3,68.1,62.5,57.1,87,79,67,30.13,29.98,8,0,8,0.28
2013-8-1,83.5,72.7,65.7,71.7,66.0,62.0,90,80,62,29.98,29.81,9,1,9,0.14
2013-8-2,85.3,74.0,63.0,68.8,62.0,57.9,88,68,44,29.96,29.87,7,1,7,0.00
2013-8-3,73.1,68.3,65.7,66.1,62.1,58.4,88,81,73,29.97,29.92,6,1,6,0.15
2013-8-4,78.3,69.5,60.8,64.4,58.4,53.6,90,70,46,30.03,29.92,11,2,11,0.02
2013-8-5,80.5,68.9,56.2,62.7,56.1,50.4,83,65,43,30.10,29.99,7,1,7,0.00
2013-8-6,79.4,70.3,63.0,69.5,62.6,57.1,87,77,65,30.03,29.96,5,1,5,0.11
2013-8-7,86.4,73.8,67.1,72.7,67.5,63.0,88,81,59,30.03,29.95,11,1,11,0.16
2013-8-8,81.0,74.8,68.8,74.0,69.8,65.3,90,85,74,30.00,29.93,9,1,9,0.09
2013-8-9,83.9,77.3,72.2,76.8,71.1,68.8,91,82,68,29.97,29.87,10,2,10,0.01
2013-8-10,81.4,75.0,70.0,69.3,65.9,58.8,86,74,50,30.07,29.95,4,0,4,0.02
2013-8-11,88.6,76.6,68.8,72.0,67.1,63.1,86,74,51,30.09,29.97,6,1,6,0.00
2013-8-12,89.1,78.0,68.8,69.9,67.1,64.7,88,71,50,30.02,29.89,7,1,7,0.00
2013-8-13,85.3,75.1,67.7,73.1,66.7,58.2,88,76,56,29.89,29.74,6,1,6,0.22
2013-8-14,73.1,65.5,57.4,58.7,51.3,46.9,72,61,47,30.10,29.84,10,2,10,0.00
2013-8-15,79.7,64.7,50.8,58.3,50.9,45.7,86,63,38,30.17,30.07,6,1,6,0.00
2013-8-16,82.8,66.4,52.0,61.6,53.4,47.0,85,65,39,30.18,30.10,8,1,8,0.00
2013-8-17,79.6,67.8,53.1,62.1,56.2,47.8,85,68,48,30.25,30.18,7,1,7,0.00
2013-8-18,69.1,65.2,62.3,61.0,59.4,57.5,86,81,72,30.23,30.15,5,1,5,0.12
2013-8-19,79.6,68.7,60.5,69.0,62.9,56.6,90,82,67,30.15,30.03,6,1,6,0.00
2013-8-20,85.5,73.8,63.7,71.2,64.3,59.7,90,74,53,30.16,30.07,7,1,7,0.01
2013-8-21,90.9,75.0,65.2,73.6,66.2,60.2,86,75,54,30.18,30.05,7,1,7,0.07
2013-8-22,85.9,74.6,67.1,70.4,65.5,63.1,88,75,55,30.08,29.93,8,1,8,0.01
2013-8-23,73.3,69.4,61.6,65.2,63.3,57.3,89,81,70,30.11,29.94,5,1,5,0.76
2013-8-24,82.3,67.6,56.5,66.3,58.1,53.0,90,74,48,30.31,30.11,5,1,5,0.01
2013-8-25,83.9,68.8,55.3,65.9,58.2,51.1,88,71,48,30.38,30.23,10,1,10,0.00
2013-8-26,87.8,73.7,62.6,67.3,61.8,56.7,83,68,47,30.25,30.01,11,2,11,0.00
2013-8-27,85.9,76.7,68.9,72.0,66.6,60.8,80,71,61,30.01,29.89,8,1,8,0.00
2013-8-28,76.0,73.0,70.6,71.4,68.3,65.9,90,85,76,29.92,29.79,8,1,8,0.27
2013-8-29,82.8,75.0,68.8,71.9,68.5,64.1,90,81,65,30.01,29.84,6,1,6,0.01
2013-8-30,88.9,75.8,64.4,72.5,66.9,60.8,91,75,51,30.01,29.86,14,2,14,0.00
2013-8-31,90.5,77.0,70.9,73.1,68.4,65.4,85,76,53,29.88,29.78,10,3,10,0.00
2013-9-1,92.0,77.1,68.6,72.8,67.4,63.7,85,73,51,29.85,29.75,8,2,8,0.01
2013-9-2,90.5,78.9,69.7,72.8,68.5,65.3,87,72,51,29.81,29.72,6,1,6,0.00
2013-9-3,85.0,74.8,65.2,67.2,60.2,53.9,78,62,43,29.98,29.75,5,1,5,0.00
2013-9-4,83.3,69.7,56.9,59.3,55.4,51.1,83,62,40,30.08,29.98,5,1,5,0.00
2013-9-5,83.0,69.8,58.7,62.5,55.7,50.4,81,63,43,30.12,30.02,6,2,6,0.00
2013-9-6,79.0,64.5,52.6,54.5,48.9,44.9,76,59,39,30.24,30.11,4,1,4,0.00
2013-9-7,85.0,66.6,51.5,59.8,52.7,45.2,83,63,41,30.12,29.93,6,1,6,0.00
2013-9-8,88.9,74.4,62.6,67.3,61.1,53.8,79,65,49,30.03,29.87,9,2,9,0.00
2013-9-9,78.8,70.0,62.8,63.6,57.5,50.9,79,65,50,30.17,30.03,4,1,4,0.00
2013-9-10,94.5,79.7,66.1,73.1,67.5,60.8,84,68,49,30.15,30.07,7,3,7,0.00
2013-9-11,96.1,82.4,72.4,73.9,69.7,66.6,84,67,47,30.14,30.00,7,2,7,0.00
2013-9-12,95.4,81.1,71.3,72.5,67.0,62.5,82,63,45,29.94,29.74,13,2,13,0.01
2013-9-13,77.6,68.8,58.1,62.5,53.8,46.3,79,60,42,29.95,29.71,10,2,10,0.02
2013-9-14,67.0,58.0,49.5,46.3,43.7,41.0,76,60,44,30.13,29.95,9,1,9,0.00
2013-9-15,78.8,62.2,46.4,56.6,49.7,40.9,85,66,42,30.18,30.04,9,2,9,0.00
2013-9-16,68.4,63.1,58.9,57.1,54.7,51.1,85,74,61,30.20,30.00,8,1,8,0.11
2013-9-17,70.6,58.9,47.3,51.8,43.9,38.2,80,60,34,30.39,30.20,7,1,7,0.00
2013-9-18,75.4,57.1,40.5,52.4,44.2,35.1,83,64,41,30.29,30.13,9,1,9,0.00
2013-9-19,77.8,62.2,49.1,59.6,51.9,43.8,84,70,52,30.15,30.04,9,1,10,0.00
2013-9-20,83.9,68.2,54.9,65.8,58.1,50.0,87,71,52,30.05,29.91,8,1,8,0.00
2013-9-21,72.4,65.3,60.5,63.3,59.8,56.8,88,82,73,29.91,29.66,9,2,9,0.78
2013-9-22,70.2,61.2,52.9,58.1,51.6,44.8,89,72,48,29.95,29.73,10,1,10,0.01
2013-9-23,66.6,56.6,48.8,47.8,44.5,40.7,79,65,47,30.07,29.94,9,2,9,0.00
2013-9-24,73.4,56.3,40.7,53.6,45.4,36.2,86,69,47,30.08,29.92,5,0,5,0.00
2013-9-25,77.4,58.9,45.0,54.7,47.2,40.3,87,68,40,29.97,29.86,5,0,5,0.00
2013-9-26,77.4,61.1,49.0,56.1,48.2,43.8,84,65,38,30.05,29.90,7,1,7,0.00
2013-9-27,76.0,59.4,47.2,57.2,49.3,41.7,84,70,50,30.19,30.05,4,0,4,0.00
2013-9-28,68.0,58.6,49.7,55.3,50.4,44.6,86,75,58,30.28,30.18,3,0,3,0.00
2013-9-29,76.0,58.8,44.3,57.5,48.2,40.1,90,70,44,30.18,30.02,6,0,6,0.00
2013-9-30,79.2,61.6,47.2,57.7,49.8,42.3,86,67,43,30.06,29.94,8,1,8,0.00
2013-10-1,81.7,65.3,56.2,61.0,54.3,50.4,83,69,42,30.06,29.96,8,1,8,0.00
2013-10-2,87.5,70.4,58.1,64.5,56.4,51.8,81,63,42,30.08,29.99,10,2,10,0.00
2013-10-3,85.7,70.6,59.0,66.1,58.6,52.6,80,67,46,30.11,30.01,8,1,8,0.00
2013-10-4,87.8,71.0,60.8,67.9,60.0,55.4,85,70,48,30.08,29.99,8,1,8,0.00
2013-10-5,91.4,75.1,64.1,68.7,62.0,58.5,84,66,41,30.08,29.97,11,2,11,0.00
2013-10-6,91.1,74.4,61.9,68.0,61.5,56.3,84,66,44,30.00,29.85,14,2,14,0.00
2013-10-7,73.3,65.5,56.0,65.4,57.2,43.1,88,75,54,30.02,29.69,12,2,12,0.12
2013-10-8,70.7,61.1,45.0,50.1,45.6,40.3,84,58,43,30.26,30.04,10,2,10,0.00
2013-10-9,57.2,50.3,45.7,47.4,43.1,40.2,82,77,60,30.30,30.20,3,0,3,0.02
2013-10-10,53.5,52.2,50.8,50.4,48.0,45.2,90,86,78,30.20,30.00,9,2,9,1.29
2013-10-11,58.9,55.3,52.6,55.8,52.5,49.4,91,90,89,30.00,29.94,7,2,7,1.25
2013-10-12,61.9,60.2,57.6,58.9,57.4,54.4,91,90,89,30.15,29.97,6,2,6,0.46
2013-10-13,59.2,57.4,56.5,56.3,54.5,53.6,91,90,89,30.28,30.14,6,1,6,1.08
2013-10-14,64.1,57.9,53.5,56.7,53.6,49.9,91,86,75,30.30,30.19,5,0,5,0.00
2013-10-15,72.0,60.2,48.6,59.2,52.5,45.9,92,77,56,30.20,30.04,5,1,5,0.01
2013-10-16,71.5,60.2,50.9,60.7,54.1,47.4,89,81,66,30.05,29.87,8,1,8,0.00
2013-10-17,76.1,64.0,58.1,64.2,57.8,46.4,87,81,63,29.87,29.68,7,1,7,0.12
2013-10-18,67.5,57.5,45.4,46.9,42.4,38.6,78,58,41,29.99,29.83,8,1,8,0.01
2013-10-19,62.6,51.2,41.9,52.3,44.2,37.0,86,77,60,29.96,29.72,10,1,10,0.10
2013-10-20,63.4,51.2,40.7,40.6,36.0,33.0,75,57,37,30.05,29.87,7,1,7,0.00
2013-10-21,68.8,52.7,36.7,47.3,39.8,31.9,83,63,40,30.07,29.89,7,2,7,0.00
2013-10-22,60.8,50.5,39.2,49.5,41.0,31.0,82,70,49,29.89,29.79,6,1,6,0.00
2013-10-23,51.1,42.4,36.4,38.6,34.0,31.0,82,72,54,29.88,29.65,5,1,5,0.00
2013-10-24,49.0,42.4,36.4,32.0,29.3,25.9,76,61,43,30.09,29.87,8,1,8,0.00
2013-10-25,51.7,39.8,30.8,33.8,27.8,24.0,78,63,46,30.26,30.08,8,2,9,0.00
2013-10-26,57.1,43.0,28.4,33.3,27.9,22.2,79,58,38,30.26,29.88,14,3,14,0.00
2013-10-27,60.7,50.2,38.5,37.6,33.6,29.1,72,54,38,30.07,29.92,8,1,8,0.00
2013-10-31,67.3,63.0,55.3,58.2,55.5,50.1,85,77,70,30.03,29.67,8,2,8,0.01
2013-11-1,76.0,64.8,49.5,59.7,51.4,41.7,85,64,35,29.68,29.50,23,3,23,0.26
2013-11-2,64.4,52.5,42.8,48.1,40.7,33.9,85,65,43,29.86,29.63,10,2,10,0.00
2013-11-3,58.3,47.6,37.3,38.0,30.3,21.8,73,53,32,30.38,29.86,12,2,12,0.00
2013-11-4,46.4,37.4,28.8,26.6,23.0,18.4,68,56,41,30.55,30.38,5,1,5,0.00
2013-11-5,52.2,44.1,31.7,39.4,32.0,24.3,78,63,47,30.55,30.38,6,0,6,0.00
2013-11-6,72.7,59.8,46.1,52.4,47.1,38.7,82,64,47,30.38,29.99,15,4,15,0.00
2013-11-7,57.6,51.7,41.4,51.7,40.7,22.1,86,67,45,30.05,29.83,12,2,12,0.01
2013-11-8,50.4,41.0,29.7,27.4,24.0,20.4,71,51,37,30.25,30.03,10,2,12,0.00
2013-11-9,59.4,41.8,27.7,33.6,26.6,20.2,78,57,33,30.26,29.97,15,2,15,0.00
2013-11-10,60.5,47.5,37.4,35.7,28.8,24.5,67,49,33,30.20,29.94,16,3,16,0.00
2013-11-11,61.0,47.2,32.6,34.3,28.4,22.7,69,49,36,30.23,29.94,11,2,11,0.00
2013-11-12,51.5,38.6,30.2,37.6,22.6,14.0,69,53,42,30.35,29.93,17,4,17,0.00
2013-11-13,43.2,33.8,28.8,20.4,17.3,13.2,64,51,37,30.44,30.33,12,2,12,0.00
2013-11-14,61.2,43.8,28.4,25.5,20.3,13.9,58,41,23,30.28,30.14,9,2,9,0.00
2013-11-15,66.6,46.4,29.2,33.0,23.8,16.3,62,43,21,30.21,30.10,8,1,8,0.01
2013-11-16,67.3,50.9,41.9,50.9,41.7,33.2,84,71,54,30.25,30.14,8,1,8,0.01
2013-11-17,63.0,56.1,47.2,56.3,50.5,42.9,89,82,73,30.15,29.65,13,3,13,0.00
2013-11-18,65.2,57.2,47.0,56.3,34.8,25.3,84,46,24,29.92,29.64,11,4,13,0.00
2013-11-19,47.7,40.5,31.1,27.0,24.3,20.7,68,53,43,30.32,29.92,13,4,13,0.00
2013-11-20,53.3,34.8,25.6,28.7,21.1,17.1,76,59,36,30.48,30.31,7,1,7,0.00
2013-11-21,48.6,37.7,25.9,36.5,29.3,18.0,81,72,62,30.49,30.29,5,0,5,0.00
2013-11-22,65.0,54.9,40.3,50.9,45.6,34.3,80,71,58,30.30,29.97,9,2,9,0.00
2013-11-23,52.4,41.2,27.4,43.7,25.5,10.7,72,54,36,30.18,30.00,14,4,14,0.00
2013-11-24,30.6,24.3,20.2,16.7,5.9,2.9,70,46,33,30.44,30.17,14,5,14,0.00
2013-11-25,42.7,27.2,15.8,15.0,9.2,3.3,66,48,30,30.46,30.23,8,2,8,0.00
2013-11-26,35.5,33.9,32.4,30.1,25.0,13.8,89,71,42,30.23,29.60,10,1,10,0.00
2013-11-27,37.8,34.2,26.3,33.8,26.6,10.4,89,74,50,30.01,29.52,15,4,15,0.00
2013-11-28,40.5,30.0,24.1,20.0,15.2,10.5,61,54,42,30.38,30.01,10,2,10,0.00
2013-11-29,45.4,31.1,22.3,24.0,18.6,13.7,74,61,42,30.63,30.37,11,1,11,0.00
2013-11-30,37.3,27.1,18.4,24.5,17.7,11.7,79,68,55,30.62,30.38,7,1,7,0.00
2013-12-4,53.3,45.4,40.3,42.2,38.5,35.3,88,77,66,29.99,29.95,1,0,2,0.00
2013-12-5,70.2,55.5,41.4,56.8,48.9,37.2,90,79,61,29.99,29.86,10,2,10,0.00
2013-12-6,59.9,45.6,36.5,56.4,41.7,33.1,91,86,83,30.12,29.82,10,3,10,0.00
2013-12-7,41.0,34.9,27.2,33.3,27.0,18.7,88,73,58,30.48,30.08,12,3,12,0.00
2013-12-8,27.7,25.6,24.1,24.5,20.0,17.7,88,79,70,30.49,30.23,5,1,5,0.00
2013-12-9,40.9,32.8,27.5,35.6,29.2,24.1,90,86,79,30.23,29.96,4,0,4,0.00
2013-12-10,40.1,32.7,27.9,32.8,24.8,14.2,90,74,50,30.15,29.92,9,1,9,0.00
2013-12-11,44.6,27.4,17.3,22.2,15.1,9.5,75,61,38,30.31,30.14,8,1,8,0.00
2013-12-12,36.9,27.0,18.0,20.2,9.4,4.5,70,48,30,30.26,30.16,8,2,8,0.00
2013-12-13,42.1,28.9,19.4,20.0,14.6,6.5,70,55,37,30.23,30.13,10,2,10,0.00
2013-12-14,36.4,32.2,28.4,30.2,26.1,19.1,87,78,67,30.23,29.68,6,0,6,0.00
2013-12-15,43.6,35.2,31.0,34.4,27.0,20.9,91,73,54,29.88,29.59,9,2,9,0.00
2013-12-16,36.2,33.0,29.3,26.8,24.2,22.4,76,70,63,30.09,29.87,6,1,6,0.00
2013-12-17,43.6,34.0,29.9,33.3,27.1,23.2,84,76,63,30.05,29.85,7,1,7,0.00
2013-12-18,43.7,32.5,24.1,26.1,20.4,16.4,85,62,42,30.14,29.93,7,1,7,0.00
2013-12-19,61.6,41.6,24.1,37.0,26.2,16.7,75,55,38,30.11,29.99,11,3,11,0.00
2013-12-20,56.2,49.1,44.1,36.1,31.5,28.0,55,51,45,30.02,29.92,10,2,10,0.00
2013-12-21,74.0,60.4,50.2,57.1,46.2,35.6,72,60,49,29.95,29.81,19,5,19,0.00
2013-12-22,70.2,62.9,58.3,61.3,56.2,52.7,88,79,67,29.95,29.74,18,4,18,0.00
2013-12-23,59.8,50.2,34.9,54.9,43.0,23.6,91,76,62,30.19,29.86,10,3,10,0.00
2013-12-24,37.8,30.0,19.6,23.9,16.8,6.0,70,58,42,30.41,30.15,13,3,13,0.00
2013-12-25,39.2,24.8,17.3,17.8,11.1,6.8,68,56,39,30.48,30.24,9,1,9,0.00
2013-12-26,46.4,32.9,20.5,24.9,16.4,10.2,68,51,36,30.28,30.15,12,2,12,0.00
2013-12-27,55.1,36.2,24.5,23.3,18.3,14.1,69,50,28,30.34,30.23,12,2,12,0.00
2013-12-28,59.6,42.4,30.6,30.0,23.8,17.1,62,49,31,30.26,30.04,11,3,11,0.00
2013-12-29,48.1,43.5,40.0,43.4,35.8,25.6,90,75,46,30.04,29.53,8,2,11,0.00
2013-12-30,45.9,38.0,29.0,36.6,28.8,21.1,80,69,63,30.10,29.77,9,2,9,0.00
2013-12-31,41.4,31.0,23.8,26.8,19.5,13.7,83,63,43,30.24,30.03,14,2,14,0.00
2014-1-1,57.4,33.9,21.4,33.3,21.6,14.0,75,62,37,30.31,30.03,8,1,8,0.00
2014-1-2,33.7,30.1,26.5,26.5,23.9,19.7,86,77,68,30.03,29.59,5,0,5,0.00